Vandalia, OH

5:41 AM EST on February 28, 2017 (GMT -0500)
Cox-Dayton International

Weather History for KDAY - September, 2013

Change the Weather History Date:

Wednesday, September 18, 2013

  Actual Average Record
Temperature  
Mean Temperature 70 °F 65 °F  
Max Temperature 81 °F 75 °F 96 °F (1895)
Min Temperature 58 °F 54 °F 37 °F (1959)
Degree Days  
Heating Degree Days 0 3  
Month to date heating degree days 25 29  
Since 1 July heating degree days 37 31  
Cooling Degree Days 5 3  
Month to date cooling degree days 118 77  
Year to date cooling degree days 1005 859  
Growing Degree Days 19 (Base 50)    
Moisture  
Dew Point 56 °F    
Average Humidity 63    
Maximum Humidity 86    
Minimum Humidity 39    
Precipitation  
Precipitation 0.00 in 0.10 in 1.19 in (1925)
Month to date precipitation 0.46 2.00  
Year to date precipitation 22.84 30.31  
Snow  
Snow 0.00 in 0.00 in - ()
Month to date snowfall 0.0 0.0  
Since 1 July snowfall 0.0 0.0  
Since 1 September snowfall 0.0 0.0  
Snow Depth 0.00 in    
Sea Level Pressure  
Sea Level Pressure 30.13 in    
Wind  
Wind Speed 6 mph (SSE)    
Max Wind Speed 13 mph    
Max Gust Speed 17 mph    
Visibility 10 miles    
Events      
T = Trace of Precipitation, MM = Missing Value Source: NWS Daily Summary

Daily Weather History Graph

Daily Weather History Graph

Search for Another Location

Airport or City:

Trip Planner

Search our weather history database for the weather conditions in past years. The results will help you decide how hot, cold, wet, or windy it might be!

Date:

Astronomy

Sep. 18, 2013 Rise Set
Actual Time 7:20 AM EDT 7:40 PM EDT
Civil Twilight 6:53 AM EDT 8:07 PM EDT
Nautical Twilight 6:22 AM EDT 8:38 PM EDT
Astronomical Twilight 5:49 AM EDT 9:11 PM EDT
Moon 7:02 PM EDT (9/18) 6:22 AM EDT (9/18)
Length of Visible Light 13h 13m
Length of Day
12h 19m
Waxing Gibbous, 99% of the Moon is Illuminated
Sep 18
Waxing Gibbous
Sep 19
Full
Sep 26
Last Quarter
Oct 4
New
Oct 11
First Quarter

Hourly Weather History & Observations

Time (EDT) Temp. Heat Index Dew Point Humidity Pressure Visibility Wind Dir Wind Speed Gust Speed Precip Events Conditions
12:56 AM 60.1 °F - 52.0 °F 75% 30.19 in 10.0 mi ESE 8.1 mph - N/A   Scattered Clouds
1:56 AM 60.1 °F - 53.1 °F 78% 30.17 in 10.0 mi East 8.1 mph - N/A   Mostly Cloudy
2:56 AM 60.1 °F - 52.0 °F 75% 30.16 in 10.0 mi East 6.9 mph - N/A   Overcast
3:56 AM 57.9 °F - 52.0 °F 81% 30.15 in 10.0 mi East 4.6 mph - N/A   Overcast
4:56 AM 60.1 °F - 52.0 °F 75% 30.14 in 10.0 mi ESE 4.6 mph - N/A   Overcast
5:56 AM 59.0 °F - 53.1 °F 81% 30.15 in 10.0 mi ESE 3.5 mph - N/A   Overcast
6:56 AM 57.9 °F - 53.1 °F 84% 30.15 in 10.0 mi East 3.5 mph - N/A   Overcast
7:56 AM 59.0 °F - 54.0 °F 83% 30.17 in 10.0 mi ESE 5.8 mph - N/A   Overcast
8:56 AM 61.0 °F - 55.0 °F 81% 30.17 in 9.0 mi SE 5.8 mph - N/A   Overcast
9:56 AM 62.1 °F - 55.0 °F 78% 30.18 in 10.0 mi SSE 4.6 mph - N/A   Overcast
10:56 AM 66.9 °F - 57.0 °F 70% 30.17 in 10.0 mi SW 3.5 mph - N/A   Mostly Cloudy
11:56 AM 71.1 °F - 57.9 °F 63% 30.17 in 10.0 mi Calm Calm - N/A   Mostly Cloudy
12:56 PM 75.0 °F - 57.0 °F 53% 30.14 in 10.0 mi SSW 3.5 mph - N/A   Scattered Clouds
1:56 PM 78.1 °F - 55.0 °F 45% 30.12 in 10.0 mi SW 8.1 mph - N/A   Mostly Cloudy
2:56 PM 78.1 °F - 55.0 °F 45% 30.10 in 10.0 mi South 6.9 mph - N/A   Scattered Clouds
3:56 PM 79.0 °F - 53.1 °F 40% 30.08 in 10.0 mi Calm Calm - N/A   Scattered Clouds
4:56 PM 81.0 °F 80.4 °F 53.1 °F 38% 30.06 in 10.0 mi South 5.8 mph - N/A   Scattered Clouds
5:56 PM 80.1 °F 80.0 °F 54.0 °F 40% 30.06 in 10.0 mi Calm Calm - N/A   Scattered Clouds
6:56 PM 78.1 °F - 54.0 °F 43% 30.06 in 10.0 mi South 5.8 mph - N/A   Mostly Cloudy
7:56 PM 75.0 °F - 57.9 °F 55% 30.07 in 10.0 mi SSW 9.2 mph - N/A   Mostly Cloudy
8:56 PM 72.0 °F - 62.1 °F 71% 30.08 in 10.0 mi SSW 9.2 mph - N/A   Partly Cloudy
9:56 PM 71.1 °F - 63.0 °F 75% 30.09 in 9.0 mi SSW 9.2 mph - N/A   Scattered Clouds
10:56 PM 69.1 °F - 63.0 °F 81% 30.09 in 9.0 mi SSW 9.2 mph - N/A   Partly Cloudy
11:56 PM 69.1 °F - 64.0 °F 84% 30.09 in 7.0 mi SSW 6.9 mph - N/A   Clear